• In Netherlands
  • List of Countries
  • For 7 days
  • Water Temperature
  • Satellite Maps
  • Weather Map
  • Weather Widgets
  • user-avatar
    Login

    Hourly Weather Shusha

    Today, 26 March, Sunday

    Time Temperature Precipitation Wind Pressure Humidity
    00:00 +1°C° 0 mm 1 mps 656 mmHg 85%
    01:00 +1°C° 0 mm 1 mps 656 mmHg 84%
    02:00 +1°C° 0 mm 1 mps 656 mmHg 84%
    03:00 0°C° 0 mm 1 mps 656 mmHg 81%
    04:00 0°C° 0 mm 1 mps 656 mmHg 80%
    05:00 0°C° 0 mm 1 mps 656 mmHg 79%
    06:00 0°C° 0 mm 1 mps 656 mmHg 78%
    07:00 +3°C° 0 mm 1 mps 657 mmHg 69%
    08:00 +5°C° 0 mm 1 mps 658 mmHg 61%
    09:00 +8°C° 0 mm 1 mps 658 mmHg 52%
    10:00 +9°C° 0 mm 1 mps 658 mmHg 49%
    11:00 +9°C° 0 mm 2 mps 658 mmHg 46%
    12:00 +12°C° 0 mm 2 mps 658 mmHg 44%
    13:00 +12°C° 0 mm 2 mps 658 mmHg 43%
    14:00 +12°C° 0 mm 2 mps 658 mmHg 43%
    15:00 +12°C° 0 mm 2 mps 658 mmHg 43%
    16:00 +9°C° 0 mm 2 mps 657 mmHg 52%
    17:00 +8°C° 0 mm 1 mps 657 mmHg 60%
    18:00 +6°C° 0 mm 1 mps 656 mmHg 69%
    19:00 +6°C° 0 mm 1 mps 657 mmHg 70%
    20:00 +5°C° 0 mm 1 mps 657 mmHg 71%
    21:00 +3°C° 0 mm 2 mps 657 mmHg 72%
    22:00 +3°C° 0 mm 2 mps 657 mmHg 69%
    23:00 +3°C° 0 mm 2 mps 657 mmHg 67%

    Tomorrow, 27 March, Monday

    Time Temperature Precipitation Wind Pressure Humidity
    00:00 +3°C° 0 mm 2 mps 657 mmHg 65%
    01:00 +3°C° 0 mm 2 mps 657 mmHg 64%
    02:00 +3°C° 0 mm 2 mps 657 mmHg 63%
    03:00 +2°C° 0 mm 3 mps 657 mmHg 62%
    04:00 +1°C° 0 mm 3 mps 657 mmHg 62%
    05:00 +1°C° 0 mm 3 mps 657 mmHg 62%
    06:00 +1°C° 0 mm 3 mps 657 mmHg 61%
    07:00 +5°C° 0 mm 2 mps 657 mmHg 54%
    08:00 +8°C° 0 mm 2 mps 658 mmHg 48%
    09:00 +12°C° 0 mm 2 mps 658 mmHg 41%
    10:00 +13°C° 0 mm 2 mps 658 mmHg 38%
    11:00 +14°C° 0 mm 2 mps 658 mmHg 35%
    12:00 +16°C° 0 mm 3 mps 658 mmHg 32%
    13:00 +16°C° 0 mm 3 mps 658 mmHg 32%
    14:00 +16°C° 0 mm 3 mps 657 mmHg 32%
    15:00 +15°C° 0 mm 4 mps 657 mmHg 32%
    16:00 +13°C° 0 mm 3 mps 656 mmHg 39%
    17:00 +12°C° 0 mm 2 mps 656 mmHg 46%
    18:00 +9°C° 0 mm 2 mps 655 mmHg 53%
    19:00 +8°C° 0 mm 2 mps 656 mmHg 55%
    20:00 +7°C° 0 mm 2 mps 656 mmHg 56%
    21:00 +6°C° 0 mm 2 mps 656 mmHg 57%
    22:00 +6°C° 0 mm 2 mps 656 mmHg 58%
    23:00 +6°C° 0 mm 2 mps 656 mmHg 58%

    Day after tomorrow, 28 March, Tuesday

    Time Temperature Precipitation Wind Pressure Humidity
    00:00 +5°C° 0 mm 2 mps 656 mmHg 59%
    01:00 +5°C° 0 mm 2 mps 656 mmHg 61%
    02:00 +5°C° 0 mm 2 mps 655 mmHg 62%
    03:00 +4°C° 0 mm 2 mps 655 mmHg 63%
    04:00 +4°C° 0 mm 2 mps 656 mmHg 65%
    05:00 +4°C° 0 mm 2 mps 656 mmHg 66%
    06:00 +4°C° 0 mm 1 mps 656 mmHg 67%
    07:00 +5°C° 0 mm 2 mps 657 mmHg 61%
    08:00 +7°C° 0 mm 2 mps 658 mmHg 56%
    09:00 +9°C° 0 mm 3 mps 659 mmHg 50%
    10:00 +10°C° 0 mm 3 mps 659 mmHg 49%
    11:00 +10°C° 0 mm 3 mps 659 mmHg 49%
    12:00 +11°C° 0 mm 3 mps 659 mmHg 49%
    13:00 +11°C° 0.1 mm 3 mps 659 mmHg 50%
    14:00 +10°C° 0.1 mm 3 mps 659 mmHg 51%
    15:00 +10°C° 0.1 mm 3 mps 658 mmHg 52%
    16:00 +9°C° 0 mm 2 mps 658 mmHg 58%
    17:00 +8°C° 0 mm 2 mps 658 mmHg 65%
    18:00 +7°C° 0 mm 1 mps 658 mmHg 71%
    19:00 +6°C° 0 mm 1 mps 658 mmHg 75%
    20:00 +5°C° 0 mm 1 mps 658 mmHg 78%
    21:00 +4°C° 0 mm 1 mps 658 mmHg 82%
    22:00 +4°C° 0 mm 1 mps 658 mmHg 81%
    23:00 +4°C° 0 mm 1 mps 658 mmHg 80%

    29 March, Wednesday

    Time Temperature Precipitation Wind Pressure Humidity
    00:00 +3°C° 0 mm 1 mps 658 mmHg 79%
    01:00 +3°C° 0 mm 1 mps 657 mmHg 78%
    02:00 +3°C° 0 mm 1 mps 657 mmHg 78%
    03:00 +2°C° 0 mm 1 mps 657 mmHg 77%
    04:00 +2°C° 0 mm 1 mps 657 mmHg 78%
    05:00 +2°C° 0 mm 1 mps 657 mmHg 78%
    06:00 +2°C° 0 mm 1 mps 657 mmHg 78%
    07:00 +5°C° 0 mm 1 mps 658 mmHg 67%
    08:00 +7°C° 0 mm 2 mps 659 mmHg 57%
    09:00 +10°C° 0 mm 2 mps 660 mmHg 46%
    10:00 +12°C° 0 mm 2 mps 660 mmHg 43%
    11:00 +12°C° 0 mm 3 mps 660 mmHg 40%
    12:00 +13°C° 0 mm 3 mps 660 mmHg 37%
    13:00 +13°C° 0 mm 3 mps 659 mmHg 37%
    14:00 +13°C° 0 mm 3 mps 659 mmHg 38%
    15:00 +13°C° 0 mm 3 mps 659 mmHg 38%
    16:00 +12°C° 0 mm 2 mps 659 mmHg 45%
    17:00 +9°C° 0 mm 2 mps 659 mmHg 53%
    18:00 +8°C° 0 mm 1 mps 659 mmHg 60%
    19:00 +7°C° 0 mm 1 mps 659 mmHg 65%
    20:00 +6°C° 0 mm 1 mps 660 mmHg 71%
    21:00 +4°C° 0 mm 1 mps 660 mmHg 76%
    22:00 +4°C° 0 mm 1 mps 660 mmHg 79%
    23:00 +3°C° 0 mm 1 mps 661 mmHg 83%

    30 March, Thursday

    Time Temperature Precipitation Wind Pressure Humidity
    00:00 +3°C° 0 mm 1 mps 661 mmHg 86%
    01:00 +2°C° 0 mm 1 mps 661 mmHg 88%
    02:00 +2°C° 0 mm 1 mps 661 mmHg 90%
    03:00 +2°C° 0 mm 1 mps 661 mmHg 92%
    04:00 +2°C° 0 mm 1 mps 662 mmHg 92%
    05:00 +1°C° 0 mm 2 mps 662 mmHg 92%
    06:00 +1°C° 0 mm 2 mps 662 mmHg 92%
    07:00 +2°C° 0 mm 2 mps 663 mmHg 85%
    08:00 +3°C° 0 mm 2 mps 663 mmHg 79%
    09:00 +5°C° 0 mm 2 mps 664 mmHg 72%
    10:00 +6°C° 0 mm 2 mps 663 mmHg 69%
    11:00 +5°C° 0 mm 3 mps 663 mmHg 65%
    12:00 +7°C° 0 mm 3 mps 663 mmHg 62%
    13:00 +8°C° 0 mm 3 mps 662 mmHg 62%
    14:00 +8°C° 0 mm 2 mps 662 mmHg 62%
    15:00 +8°C° 0 mm 2 mps 661 mmHg 62%
    16:00 +7°C° 0 mm 2 mps 661 mmHg 68%
    17:00 +7°C° 0 mm 1 mps 660 mmHg 75%
    18:00 +5°C° 0 mm 1 mps 660 mmHg 81%
    19:00 +4°C° 0 mm 1 mps 660 mmHg 84%
    20:00 +3°C° 0 mm 1 mps 659 mmHg 87%
    21:00 +1°C° 0 mm 0 mps 659 mmHg 90%
    22:00 +2°C° 0 mm 1 mps 659 mmHg 89%
    23:00 +2°C° 0 mm 1 mps 658 mmHg 88%

    31 March, Friday

    Time Temperature Precipitation Wind Pressure Humidity
    00:00 +2°C° 0 mm 1 mps 658 mmHg 87%
    01:00 +2°C° 0 mm 1 mps 657 mmHg 86%
    02:00 +2°C° 0 mm 1 mps 657 mmHg 85%
    03:00 +2°C° 0 mm 1 mps 656 mmHg 84%
    04:00 +2°C° 0 mm 1 mps 656 mmHg 83%
    05:00 +2°C° 0 mm 1 mps 656 mmHg 82%
    06:00 +2°C° 0 mm 1 mps 656 mmHg 81%
    07:00 +5°C° 0 mm 1 mps 657 mmHg 70%
    08:00 +9°C° 0 mm 1 mps 657 mmHg 59%
    09:00 +12°C° 0 mm 1 mps 658 mmHg 47%
    10:00 +13°C° 0 mm 1 mps 658 mmHg 45%
    11:00 +14°C° 0 mm 2 mps 658 mmHg 42%
    12:00 +16°C° 0 mm 2 mps 658 mmHg 39%
    13:00 +16°C° 0 mm 2 mps 658 mmHg 40%
    14:00 +16°C° 0 mm 2 mps 657 mmHg 40%
    15:00 +16°C° 0 mm 2 mps 657 mmHg 41%
    16:00 +14°C° 0 mm 2 mps 657 mmHg 49%
    17:00 +12°C° 0 mm 1 mps 657 mmHg 56%
    18:00 +10°C° 0 mm 1 mps 656 mmHg 64%
    19:00 +9°C° 0.1 mm 1 mps 657 mmHg 67%
    20:00 +8°C° 0.1 mm 2 mps 657 mmHg 71%
    21:00 +7°C° 0.1 mm 2 mps 657 mmHg 74%
    22:00 +6°C° 0 mm 2 mps 657 mmHg 77%
    23:00 +5°C° 0 mm 2 mps 657 mmHg 79%
    Show more